This is the latest recevied weather packets stored in our database for station/object N8AMF. If no packets are shown the sender has not sent any weather packets the latest 1 day(s).
| Time | Temp. | Humidity | Pressure | Rain* | Wind** | Luminosity | Snow |
|---|---|---|---|---|---|---|---|
| 1777977878 | 16.67° C | 68% | 1003.2 hPa | 0 mm | 0 m/s | 10 W/m² | - |
| 1777977572 | 17.22° C | 68% | 1003.3 hPa | 0 mm | 1.34 m/s, 199° | 7 W/m² | - |
| 1777977270 | 17.22° C | 69% | 1003.1 hPa | 0 mm | 0.89 m/s, 198° | 4 W/m² | - |
| 1777976967 | 16.67° C | 70% | 1002.9 hPa | 0 mm | 0.89 m/s, 222° | 3 W/m² | - |
| 1777976664 | 16.67° C | 71% | 1002.9 hPa | 0 mm | 0.89 m/s, 225° | 2 W/m² | - |
| 1777976360 | 17.22° C | 71% | 1003 hPa | 0 mm | 1.34 m/s, 195° | 1 W/m² | - |
| 1777976059 | 17.22° C | 72% | 1003.1 hPa | 0 mm | 0.45 m/s, 273° | 1 W/m² | - |
| 1777975751 | 17.78° C | 70% | 1003 hPa | 0 mm | 0.45 m/s, 309° | 0 W/m² | - |
| 1777975448 | 17.78° C | 67% | 1003.1 hPa | 0 mm | 0.89 m/s, 84° | 0 W/m² | - |
| 1777975143 | 17.78° C | 65% | 1002.9 hPa | 0 mm | 1.34 m/s, 224° | 0 W/m² | - |
| 1777974841 | 18.33° C | 64% | 1002.9 hPa | 0 mm | 0.45 m/s, 234° | 0 W/m² | - |
| 1777974537 | 18.33° C | 65% | 1002.5 hPa | 0 mm | 0.89 m/s, 222° | 0 W/m² | - |
| 1777974234 | 18.33° C | 64% | 1002.5 hPa | 0 mm | 1.79 m/s, 230° | 0 W/m² | - |
| 1777973929 | 18.33° C | 64% | 1002.3 hPa | 0 mm | 1.34 m/s, 202° | 0 W/m² | - |
| 1777973627 | 18.33° C | 64% | 1002.1 hPa | 0 mm | 0.89 m/s, 237° | 0 W/m² | - |
| 1777973324 | 18.33° C | 64% | 1002.1 hPa | 0 mm | 1.34 m/s, 57° | 0 W/m² | - |
| 1777973022 | 18.33° C | 64% | 1002.1 hPa | 0 mm | 1.34 m/s, 205° | 0 W/m² | - |
| 1777972719 | 18.33° C | 64% | 1002.2 hPa | 0 mm | 0 m/s | 0 W/m² | - |
| 1777972417 | 18.33° C | 63% | 1002.2 hPa | 0 mm | 0.89 m/s, 202° | 0 W/m² | - |
| 1777972115 | 18.89° C | 63% | 1002 hPa | 0 mm | 1.34 m/s, 229° | 0 W/m² | - |
| 1777971813 | 18.89° C | 63% | 1002.1 hPa | 0 mm | 0.45 m/s, 196° | 0 W/m² | - |
| 1777971510 | 18.89° C | 62% | 1001.7 hPa | 0 mm | 1.79 m/s, 214° | 0 W/m² | - |
| 1777971208 | 18.89° C | 62% | 1001.9 hPa | 0 mm | 1.79 m/s, 233° | 0 W/m² | - |
| 1777970905 | 18.89° C | 62% | 1001.8 hPa | 0 mm | 0.45 m/s, 133° | 0 W/m² | - |
| 1777970604 | 18.89° C | 61% | 1001.8 hPa | 0 mm | 1.34 m/s, 196° | 0 W/m² | - |
* Rain latest hour (hover to see other rain measurements)
** Current wind speed in m/s (hover to see current wind gust speed)